Year,Month,Day,Hour,Minute,Value (Times are PST for temperature in C)
2012,07,10,00,00,15.00
2012,07,10,00,01,15.00
2012,07,10,00,02,15.00
2012,07,10,00,03,15.00
2012,07,10,00,04,15.00
2012,07,10,00,05,15.00
2012,07,10,00,06,15.00
2012,07,10,00,07,15.00
2012,07,10,00,08,14.90
2012,07,10,00,09,14.90
2012,07,10,00,10,14.80
2012,07,10,00,11,14.80
2012,07,10,00,12,14.80
2012,07,10,00,13,14.80
2012,07,10,00,14,14.70
2012,07,10,00,15,14.70
2012,07,10,00,16,14.70
2012,07,10,00,17,14.70
2012,07,10,00,18,14.70
2012,07,10,00,19,14.60
2012,07,10,00,20,14.60
2012,07,10,00,21,14.60
2012,07,10,00,22,14.60
2012,07,10,00,23,14.60
2012,07,10,00,24,14.60
2012,07,10,00,25,14.50
2012,07,10,00,26,14.50
2012,07,10,00,27,14.50
2012,07,10,00,28,14.50
2012,07,10,00,29,14.40
2012,07,10,00,30,14.40
2012,07,10,00,31,14.40
2012,07,10,00,32,14.40
2012,07,10,00,33,14.30
2012,07,10,00,34,14.30
2012,07,10,00,35,14.30
2012,07,10,00,36,14.30
2012,07,10,00,37,14.30
2012,07,10,00,38,14.30
2012,07,10,00,39,14.20
2012,07,10,00,40,14.20
2012,07,10,00,41,14.20
2012,07,10,00,42,14.20
2012,07,10,00,43,14.20
2012,07,10,00,44,14.10
2012,07,10,00,45,14.10
2012,07,10,00,46,14.10
2012,07,10,00,47,14.10
2012,07,10,00,48,14.10
2012,07,10,00,49,14.00
2012,07,10,00,50,14.00
2012,07,10,00,51,14.00
2012,07,10,00,52,14.00
2012,07,10,00,53,13.90
2012,07,10,00,54,13.90
2012,07,10,00,55,13.90
2012,07,10,00,56,13.90
2012,07,10,00,57,13.80
2012,07,10,00,58,13.80
2012,07,10,00,59,13.80
2012,07,10,01,00,13.80
2012,07,10,01,01,13.80
2012,07,10,01,02,13.80
2012,07,10,01,03,13.80
2012,07,10,01,04,13.80
2012,07,10,01,05,13.80
2012,07,10,01,06,13.80
2012,07,10,01,07,13.80
2012,07,10,01,08,13.80
2012,07,10,01,09,13.80
2012,07,10,01,10,13.90
2012,07,10,01,11,13.90
2012,07,10,01,12,13.90
2012,07,10,01,13,13.90
2012,07,10,01,14,13.90
2012,07,10,01,15,13.90
2012,07,10,01,16,14.00
2012,07,10,01,17,14.00
2012,07,10,01,18,14.00
2012,07,10,01,19,14.10
2012,07,10,01,20,14.10
2012,07,10,01,21,14.20
2012,07,10,01,22,14.30
2012,07,10,01,23,14.30
2012,07,10,01,24,14.30
2012,07,10,01,25,14.30
2012,07,10,01,26,14.30
2012,07,10,01,27,14.30
2012,07,10,01,28,14.20
2012,07,10,01,29,14.20
2012,07,10,01,30,14.10
2012,07,10,01,31,14.10
2012,07,10,01,32,14.10
2012,07,10,01,33,14.00
2012,07,10,01,34,14.00
2012,07,10,01,35,13.90
2012,07,10,01,36,13.90
2012,07,10,01,37,13.90
2012,07,10,01,38,13.80
2012,07,10,01,39,13.80
2012,07,10,01,40,13.80
2012,07,10,01,41,13.80
2012,07,10,01,42,13.70
2012,07,10,01,43,13.70
2012,07,10,01,44,13.70
2012,07,10,01,45,13.70
2012,07,10,01,46,13.70
2012,07,10,01,47,13.60
2012,07,10,01,48,13.60
2012,07,10,01,49,13.60
2012,07,10,01,50,13.60
2012,07,10,01,51,13.60
2012,07,10,01,52,13.60
2012,07,10,01,53,13.50
2012,07,10,01,54,13.50
2012,07,10,01,55,13.50
2012,07,10,01,56,13.50
2012,07,10,01,57,13.50
2012,07,10,01,58,13.40
2012,07,10,01,59,13.40
2012,07,10,02,00,13.40
2012,07,10,02,01,13.40
2012,07,10,02,02,13.40
2012,07,10,02,03,13.40
2012,07,10,02,04,13.40
2012,07,10,02,05,13.40
2012,07,10,02,06,13.30
2012,07,10,02,07,13.30
2012,07,10,02,08,13.30
2012,07,10,02,09,13.30
2012,07,10,02,10,13.30
2012,07,10,02,11,13.20
2012,07,10,02,12,13.20
2012,07,10,02,13,13.20
2012,07,10,02,14,13.20
2012,07,10,02,15,13.20
2012,07,10,02,16,13.10
2012,07,10,02,17,13.10
2012,07,10,02,18,13.10
2012,07,10,02,19,13.00
2012,07,10,02,20,13.00
2012,07,10,02,21,13.00
2012,07,10,02,22,13.00
2012,07,10,02,23,13.00
2012,07,10,02,24,13.00
2012,07,10,02,25,13.00
2012,07,10,02,26,13.10
2012,07,10,02,27,13.10
2012,07,10,02,28,13.10
2012,07,10,02,29,13.10
2012,07,10,02,30,13.10
2012,07,10,02,31,13.20
2012,07,10,02,32,13.20
2012,07,10,02,33,13.20
2012,07,10,02,34,13.30
2012,07,10,02,35,13.30
2012,07,10,02,36,13.30
2012,07,10,02,37,13.30
2012,07,10,02,38,13.30
2012,07,10,02,39,13.40
2012,07,10,02,40,13.40
2012,07,10,02,41,13.40
2012,07,10,02,42,13.40
2012,07,10,02,43,13.40
2012,07,10,02,44,13.30
2012,07,10,02,45,13.30
2012,07,10,02,46,13.30
2012,07,10,02,47,13.30
2012,07,10,02,48,13.30
2012,07,10,02,49,13.30
2012,07,10,02,50,13.30
2012,07,10,02,51,13.20
2012,07,10,02,52,13.20
2012,07,10,02,53,13.10
2012,07,10,02,54,13.10
2012,07,10,02,55,13.10
2012,07,10,02,56,13.10
2012,07,10,02,57,13.00
2012,07,10,02,58,13.00
2012,07,10,02,59,13.00
2012,07,10,03,00,12.90
2012,07,10,03,01,12.90
2012,07,10,03,02,12.90
2012,07,10,03,03,12.90
2012,07,10,03,04,12.90
2012,07,10,03,05,12.80
2012,07,10,03,06,12.80
2012,07,10,03,07,12.80
2012,07,10,03,08,12.80
2012,07,10,03,09,12.70
2012,07,10,03,10,12.70
2012,07,10,03,11,12.70
2012,07,10,03,12,12.70
2012,07,10,03,13,12.60
2012,07,10,03,14,12.60
2012,07,10,03,15,12.60
2012,07,10,03,16,12.60
2012,07,10,03,17,12.50
2012,07,10,03,18,12.50
2012,07,10,03,19,12.50
2012,07,10,03,20,12.40
2012,07,10,03,21,12.40
2012,07,10,03,22,12.40
2012,07,10,03,23,12.40
2012,07,10,03,24,12.40
2012,07,10,03,25,12.30
2012,07,10,03,26,12.30
2012,07,10,03,27,12.30
2012,07,10,03,28,12.30
2012,07,10,03,29,12.30
2012,07,10,03,30,12.30
2012,07,10,03,31,12.40
2012,07,10,03,32,12.40
2012,07,10,03,33,12.40
2012,07,10,03,34,12.40
2012,07,10,03,35,12.40
2012,07,10,03,36,12.40
2012,07,10,03,37,12.40
2012,07,10,03,38,12.40
2012,07,10,03,39,12.40
2012,07,10,03,40,12.40
2012,07,10,03,41,12.40
2012,07,10,03,42,12.40
2012,07,10,03,43,12.40
2012,07,10,03,44,12.40
2012,07,10,03,45,12.40
2012,07,10,03,46,12.40
2012,07,10,03,47,12.40
2012,07,10,03,48,12.40
2012,07,10,03,49,12.40
2012,07,10,03,50,12.40
2012,07,10,03,51,12.30
2012,07,10,03,52,12.30
2012,07,10,03,53,12.30
2012,07,10,03,54,12.30
2012,07,10,03,55,12.30
2012,07,10,03,56,12.30
2012,07,10,03,57,12.30
2012,07,10,03,58,12.30
2012,07,10,03,59,12.30
2012,07,10,04,00,12.30
2012,07,10,04,01,12.30
2012,07,10,04,02,12.30
2012,07,10,04,03,12.30
2012,07,10,04,04,12.30
2012,07,10,04,05,12.30
2012,07,10,04,06,12.30
2012,07,10,04,07,12.30
2012,07,10,04,08,12.30
2012,07,10,04,09,12.30
2012,07,10,04,10,12.30
2012,07,10,04,11,12.30
2012,07,10,04,12,12.30
2012,07,10,04,13,12.30
2012,07,10,04,14,12.20
2012,07,10,04,15,12.20
2012,07,10,04,16,12.20
2012,07,10,04,17,12.20
2012,07,10,04,18,12.20
2012,07,10,04,19,12.20
2012,07,10,04,20,12.20
2012,07,10,04,21,12.20
2012,07,10,04,22,12.20
2012,07,10,04,23,12.20
2012,07,10,04,24,12.20
2012,07,10,04,25,12.20
2012,07,10,04,26,12.20
2012,07,10,04,27,12.10
2012,07,10,04,28,12.10
2012,07,10,04,29,12.10
2012,07,10,04,30,12.10
2012,07,10,04,31,12.10
2012,07,10,04,32,12.00
2012,07,10,04,33,12.10
2012,07,10,04,34,12.10
2012,07,10,04,35,12.10
2012,07,10,04,36,12.10
2012,07,10,04,37,12.10
2012,07,10,04,38,12.10
2012,07,10,04,39,12.10
2012,07,10,04,40,12.00
2012,07,10,04,41,12.10
2012,07,10,04,42,12.10
2012,07,10,04,43,12.10
2012,07,10,04,44,12.10
2012,07,10,04,45,12.10
2012,07,10,04,46,12.10
2012,07,10,04,47,12.10
2012,07,10,04,48,12.00
2012,07,10,04,49,12.00
2012,07,10,04,50,12.00
2012,07,10,04,51,11.90
2012,07,10,04,52,11.90
2012,07,10,04,53,11.90
2012,07,10,04,54,11.90
2012,07,10,04,55,11.80
2012,07,10,04,56,11.80
2012,07,10,04,57,11.80
2012,07,10,04,58,11.80
2012,07,10,04,59,11.80
2012,07,10,05,00,11.70
2012,07,10,05,01,11.70
2012,07,10,05,02,11.70
2012,07,10,05,03,11.70
2012,07,10,05,04,11.70
2012,07,10,05,05,11.70
2012,07,10,05,06,11.70
2012,07,10,05,07,11.70
2012,07,10,05,08,11.70
2012,07,10,05,09,11.70
2012,07,10,05,10,11.70
2012,07,10,05,11,11.70
2012,07,10,05,12,11.70
2012,07,10,05,13,11.70
2012,07,10,05,14,11.70
2012,07,10,05,15,11.70
2012,07,10,05,16,11.70
2012,07,10,05,17,11.70
2012,07,10,05,18,11.70
2012,07,10,05,19,11.70
2012,07,10,05,20,11.70
2012,07,10,05,21,11.70
2012,07,10,05,22,11.70
2012,07,10,05,23,11.70
2012,07,10,05,24,11.70
2012,07,10,05,25,11.70
2012,07,10,05,26,11.70
2012,07,10,05,27,11.70
2012,07,10,05,28,11.70
2012,07,10,05,29,11.70
2012,07,10,05,30,11.60
2012,07,10,05,31,11.60
2012,07,10,05,32,11.60
2012,07,10,05,33,11.50
2012,07,10,05,34,11.50
2012,07,10,05,35,11.50
2012,07,10,05,36,11.50
2012,07,10,05,37,11.50
2012,07,10,05,38,11.50
2012,07,10,05,39,11.50
2012,07,10,05,40,11.50
2012,07,10,05,41,11.50
2012,07,10,05,42,11.60
2012,07,10,05,43,11.60
2012,07,10,05,44,11.60
2012,07,10,05,45,11.60
2012,07,10,05,46,11.60
2012,07,10,05,47,11.60
2012,07,10,05,48,11.60
2012,07,10,05,49,11.60
2012,07,10,05,50,11.60
2012,07,10,05,51,11.70
2012,07,10,05,52,11.70
2012,07,10,05,53,11.70
2012,07,10,05,54,11.70
2012,07,10,05,55,11.80
2012,07,10,05,56,11.80
2012,07,10,05,57,11.80
2012,07,10,05,58,11.80
2012,07,10,05,59,11.90
2012,07,10,06,00,11.90
2012,07,10,06,01,11.90
2012,07,10,06,02,12.00
2012,07,10,06,03,12.00
2012,07,10,06,04,12.10
2012,07,10,06,05,12.10
2012,07,10,06,06,12.10
2012,07,10,06,07,12.20
2012,07,10,06,08,12.20
2012,07,10,06,09,12.20
2012,07,10,06,10,12.20
2012,07,10,06,11,12.20
2012,07,10,06,12,12.20
2012,07,10,06,13,12.20
2012,07,10,06,14,12.20
2012,07,10,06,15,12.30
2012,07,10,06,16,12.30
2012,07,10,06,17,12.30
2012,07,10,06,18,12.30
2012,07,10,06,19,12.30
2012,07,10,06,20,12.30
2012,07,10,06,21,12.30
2012,07,10,06,22,12.30
2012,07,10,06,23,12.30
2012,07,10,06,24,12.30
2012,07,10,06,25,12.30
2012,07,10,06,26,12.30
2012,07,10,06,27,12.30
2012,07,10,06,28,12.30
2012,07,10,06,29,12.30
2012,07,10,06,30,12.30
2012,07,10,06,31,12.30
2012,07,10,06,32,12.30
2012,07,10,06,33,12.30
2012,07,10,06,34,12.40
2012,07,10,06,35,12.40
2012,07,10,06,36,12.40
2012,07,10,06,37,12.40
2012,07,10,06,38,12.40
2012,07,10,06,39,12.50
2012,07,10,06,40,12.50
2012,07,10,06,41,12.50
2012,07,10,06,42,12.50
2012,07,10,06,43,12.50
2012,07,10,06,44,12.50
2012,07,10,06,45,12.60
2012,07,10,06,46,12.60
2012,07,10,06,47,12.60
2012,07,10,06,48,12.60
2012,07,10,06,49,12.60
2012,07,10,06,50,12.60
2012,07,10,06,51,12.70
2012,07,10,06,52,12.70
2012,07,10,06,53,12.70
2012,07,10,06,54,12.70
2012,07,10,06,55,12.70
2012,07,10,06,56,12.70
2012,07,10,06,57,12.80
2012,07,10,06,58,12.80
2012,07,10,06,59,12.80
2012,07,10,07,00,12.80
2012,07,10,07,01,12.80
2012,07,10,07,02,12.80
2012,07,10,07,03,12.80
2012,07,10,07,04,12.80
2012,07,10,07,05,12.80
2012,07,10,07,06,12.80
2012,07,10,07,07,12.80
2012,07,10,07,08,12.80
2012,07,10,07,09,12.90
2012,07,10,07,10,12.90
2012,07,10,07,11,12.90
2012,07,10,07,12,13.00
2012,07,10,07,13,13.00
2012,07,10,07,14,13.00
2012,07,10,07,15,13.10
2012,07,10,07,16,13.10
2012,07,10,07,17,13.10
2012,07,10,07,18,13.20
2012,07,10,07,19,13.20
2012,07,10,07,20,13.20
2012,07,10,07,21,13.20
2012,07,10,07,22,13.20
2012,07,10,07,23,13.30
2012,07,10,07,24,13.30
2012,07,10,07,25,13.40
2012,07,10,07,26,13.40
2012,07,10,07,27,13.50
2012,07,10,07,28,13.50
2012,07,10,07,29,13.60
2012,07,10,07,30,13.60
2012,07,10,07,31,13.70
2012,07,10,07,32,13.70
2012,07,10,07,33,13.80
2012,07,10,07,34,13.80
2012,07,10,07,35,13.80
2012,07,10,07,36,13.90
2012,07,10,07,37,14.00
2012,07,10,07,38,14.00
2012,07,10,07,39,14.10
2012,07,10,07,40,14.10
2012,07,10,07,41,14.20
2012,07,10,07,42,14.20
2012,07,10,07,43,14.20
2012,07,10,07,44,14.20
2012,07,10,07,45,14.20
2012,07,10,07,46,14.30
2012,07,10,07,47,14.30
2012,07,10,07,48,14.30
2012,07,10,07,49,14.30
2012,07,10,07,50,14.40
2012,07,10,07,51,14.40
2012,07,10,07,52,14.50
2012,07,10,07,53,14.50
2012,07,10,07,54,14.60
2012,07,10,07,55,14.70
2012,07,10,07,56,14.80
2012,07,10,07,57,14.80
2012,07,10,07,58,14.90
2012,07,10,07,59,15.00
2012,07,10,08,00,15.00
2012,07,10,08,01,15.00
2012,07,10,08,02,15.00
2012,07,10,08,03,15.00
2012,07,10,08,04,15.00
2012,07,10,08,05,15.10
2012,07,10,08,06,15.20
2012,07,10,08,07,15.30
2012,07,10,08,08,15.40
2012,07,10,08,09,15.50
2012,07,10,08,10,15.60
2012,07,10,08,11,15.70
2012,07,10,08,12,15.70
2012,07,10,08,13,15.80
2012,07,10,08,14,15.80
2012,07,10,08,15,15.80
2012,07,10,08,16,15.90
2012,07,10,08,17,16.00
2012,07,10,08,18,16.00
2012,07,10,08,19,16.10
2012,07,10,08,20,16.10
2012,07,10,08,21,16.00
2012,07,10,08,22,16.00
2012,07,10,08,23,16.00
2012,07,10,08,24,16.00
2012,07,10,08,25,16.00
2012,07,10,08,26,16.00
2012,07,10,08,27,16.10
2012,07,10,08,28,16.10
2012,07,10,08,29,16.10
2012,07,10,08,30,16.20
2012,07,10,08,31,16.20
2012,07,10,08,32,16.20
2012,07,10,08,33,16.30
2012,07,10,08,34,16.30
2012,07,10,08,35,16.30
2012,07,10,08,36,16.30
2012,07,10,08,37,16.30
2012,07,10,08,38,16.30
2012,07,10,08,39,16.30
2012,07,10,08,40,16.30
2012,07,10,08,41,16.30
2012,07,10,08,42,16.30
2012,07,10,08,43,16.30
2012,07,10,08,44,16.30
2012,07,10,08,45,16.30
2012,07,10,08,46,16.30
2012,07,10,08,47,16.30
2012,07,10,08,48,16.30
2012,07,10,08,49,16.20
2012,07,10,08,50,16.20
2012,07,10,08,51,16.20
2012,07,10,08,52,16.20
2012,07,10,08,53,16.20
2012,07,10,08,54,16.20
2012,07,10,08,55,16.20
2012,07,10,08,56,16.20
2012,07,10,08,57,16.20
2012,07,10,08,58,16.20
2012,07,10,08,59,16.20
2012,07,10,09,00,16.20
2012,07,10,09,01,16.20
2012,07,10,09,02,16.20
2012,07,10,09,03,16.30
2012,07,10,09,04,16.30
2012,07,10,09,05,16.40
2012,07,10,09,06,16.40
2012,07,10,09,07,16.50
2012,07,10,09,08,16.50
2012,07,10,09,09,16.50
2012,07,10,09,10,16.60
2012,07,10,09,11,16.60
2012,07,10,09,12,16.60
2012,07,10,09,13,16.70
2012,07,10,09,14,16.70
2012,07,10,09,15,16.70
2012,07,10,09,16,16.60
2012,07,10,09,17,16.60
2012,07,10,09,18,16.60
2012,07,10,09,19,16.60
2012,07,10,09,20,16.60
2012,07,10,09,21,16.70
2012,07,10,09,22,16.70
2012,07,10,09,23,16.70
2012,07,10,09,24,16.70
2012,07,10,09,25,16.70
2012,07,10,09,26,16.80
2012,07,10,09,27,16.80
2012,07,10,09,28,16.80
2012,07,10,09,29,16.80
2012,07,10,09,30,16.70
2012,07,10,09,31,16.70
2012,07,10,09,32,16.70
2012,07,10,09,33,16.70
2012,07,10,09,34,16.70
2012,07,10,09,35,16.70
2012,07,10,09,36,16.70
2012,07,10,09,37,16.70
2012,07,10,09,38,16.70
2012,07,10,09,39,16.70
2012,07,10,09,40,16.70
2012,07,10,09,41,16.80
2012,07,10,09,42,16.80
2012,07,10,09,43,16.80
2012,07,10,09,44,16.80
2012,07,10,09,45,16.90
2012,07,10,09,46,17.00
2012,07,10,09,47,17.00
2012,07,10,09,48,17.10
2012,07,10,09,49,17.10
2012,07,10,09,50,17.20
2012,07,10,09,51,17.20
2012,07,10,09,52,17.20
2012,07,10,09,53,17.20
2012,07,10,09,54,17.20
2012,07,10,09,55,17.20
2012,07,10,09,56,17.20
2012,07,10,09,57,17.20
2012,07,10,09,58,17.20
2012,07,10,09,59,17.20
2012,07,10,10,00,17.20
2012,07,10,10,01,17.20
2012,07,10,10,02,17.20
2012,07,10,10,03,17.20
2012,07,10,10,04,17.20
2012,07,10,10,05,17.20
2012,07,10,10,06,17.20
2012,07,10,10,07,17.10
2012,07,10,10,08,17.10
2012,07,10,10,09,17.10
2012,07,10,10,10,17.10
2012,07,10,10,11,17.10
2012,07,10,10,12,17.10
2012,07,10,10,13,17.20
2012,07,10,10,14,17.20
2012,07,10,10,15,17.20
2012,07,10,10,16,17.30
2012,07,10,10,17,17.30
2012,07,10,10,18,17.40
2012,07,10,10,19,17.50
2012,07,10,10,20,17.50
2012,07,10,10,21,17.50
2012,07,10,10,22,17.60
2012,07,10,10,23,17.60
2012,07,10,10,24,17.60
2012,07,10,10,25,17.70
2012,07,10,10,26,17.70
2012,07,10,10,27,17.70
2012,07,10,10,28,17.70
2012,07,10,10,29,17.70
2012,07,10,10,30,17.70
2012,07,10,10,31,17.70
2012,07,10,10,32,17.80
2012,07,10,10,33,17.80
2012,07,10,10,34,17.80
2012,07,10,10,35,17.80
2012,07,10,10,36,17.80
2012,07,10,10,37,17.80
2012,07,10,10,38,17.80
2012,07,10,10,39,17.80
2012,07,10,10,40,17.80
2012,07,10,10,41,17.70
2012,07,10,10,42,17.70
2012,07,10,10,43,17.70
2012,07,10,10,44,17.70
2012,07,10,10,45,17.80
2012,07,10,10,46,17.90
2012,07,10,10,47,17.90
2012,07,10,10,48,18.00
2012,07,10,10,49,18.00
2012,07,10,10,50,18.00
2012,07,10,10,51,18.10
2012,07,10,10,52,18.10
2012,07,10,10,53,18.10
2012,07,10,10,54,18.20
2012,07,10,10,55,18.30
2012,07,10,10,56,18.30
2012,07,10,10,57,18.30
2012,07,10,10,58,18.30
2012,07,10,10,59,18.30
2012,07,10,11,00,18.30
2012,07,10,11,01,18.30
2012,07,10,11,02,18.40
2012,07,10,11,03,18.30
2012,07,10,11,04,18.30
2012,07,10,11,05,18.30
2012,07,10,11,06,18.20
2012,07,10,11,07,18.20
2012,07,10,11,08,18.20
2012,07,10,11,09,18.20
2012,07,10,11,10,18.20
2012,07,10,11,11,18.20
2012,07,10,11,12,18.20
2012,07,10,11,13,18.20
2012,07,10,11,14,18.20
2012,07,10,11,15,18.20
2012,07,10,11,16,18.20
2012,07,10,11,17,18.20
2012,07,10,11,18,18.00
2012,07,10,11,19,17.90
2012,07,10,11,20,17.90
2012,07,10,11,21,17.90
2012,07,10,11,22,17.90
2012,07,10,11,23,18.00
2012,07,10,11,24,18.00
2012,07,10,11,25,18.00
2012,07,10,11,26,18.00
2012,07,10,11,27,18.10
2012,07,10,11,28,18.10
2012,07,10,11,29,18.20
2012,07,10,11,30,18.30
2012,07,10,11,31,18.30
2012,07,10,11,32,18.40
2012,07,10,11,33,18.50
2012,07,10,11,34,18.50
2012,07,10,11,35,18.60
2012,07,10,11,36,18.50
2012,07,10,11,37,18.50
2012,07,10,11,38,18.40
2012,07,10,11,39,18.30
2012,07,10,11,40,18.30
2012,07,10,11,41,18.40
2012,07,10,11,42,18.50
2012,07,10,11,43,18.50
2012,07,10,11,44,18.50
2012,07,10,11,45,18.50
2012,07,10,11,46,18.40
2012,07,10,11,47,18.30
2012,07,10,11,48,18.30
2012,07,10,11,49,18.30
2012,07,10,11,50,18.30
2012,07,10,11,51,18.30
2012,07,10,11,52,18.30
2012,07,10,11,53,18.40
2012,07,10,11,54,18.40
2012,07,10,11,55,18.50
2012,07,10,11,56,18.60
2012,07,10,11,57,18.60
2012,07,10,11,58,18.60
2012,07,10,11,59,18.60
2012,07,10,12,00,18.50
2012,07,10,12,01,18.50
2012,07,10,12,02,18.40
2012,07,10,12,03,18.40
2012,07,10,12,04,18.40
2012,07,10,12,05,18.30
2012,07,10,12,06,18.30
2012,07,10,12,07,18.30
2012,07,10,12,08,18.20
2012,07,10,12,09,18.20
2012,07,10,12,10,18.30
2012,07,10,12,11,18.30
2012,07,10,12,12,18.30
2012,07,10,12,13,18.40
2012,07,10,12,14,18.50
2012,07,10,12,15,18.50
2012,07,10,12,16,18.60
2012,07,10,12,17,18.60
2012,07,10,12,18,18.60
2012,07,10,12,19,18.60
2012,07,10,12,20,18.60
2012,07,10,12,21,18.70
2012,07,10,12,22,18.70
2012,07,10,12,23,18.70
2012,07,10,12,24,18.60
2012,07,10,12,25,18.60
2012,07,10,12,26,18.60
2012,07,10,12,27,18.70
2012,07,10,12,28,18.70
2012,07,10,12,29,18.70
2012,07,10,12,30,18.70
2012,07,10,12,31,18.80
2012,07,10,12,32,18.80
2012,07,10,12,33,18.90
2012,07,10,12,34,18.90
2012,07,10,12,35,19.00
2012,07,10,12,36,19.00
2012,07,10,12,37,19.00
2012,07,10,12,38,19.00
2012,07,10,12,39,19.00
2012,07,10,12,40,18.90
2012,07,10,12,41,18.90
2012,07,10,12,42,18.70
2012,07,10,12,43,18.70
2012,07,10,12,44,18.70
2012,07,10,12,45,18.80
2012,07,10,12,46,18.90
2012,07,10,12,47,18.90
2012,07,10,12,48,18.80
2012,07,10,12,49,18.90
2012,07,10,12,50,18.90
2012,07,10,12,51,18.90
2012,07,10,12,52,19.00
2012,07,10,12,53,19.10
2012,07,10,12,54,19.10
2012,07,10,12,55,19.20
2012,07,10,12,56,19.20
2012,07,10,12,57,19.20
2012,07,10,12,58,19.20
2012,07,10,12,59,19.30
2012,07,10,13,00,19.30
2012,07,10,13,01,19.40
2012,07,10,13,02,19.40
2012,07,10,13,03,19.40
2012,07,10,13,04,19.40
2012,07,10,13,05,19.50
2012,07,10,13,06,19.50
2012,07,10,13,07,19.50
2012,07,10,13,08,19.40
2012,07,10,13,09,19.30
2012,07,10,13,10,19.30
2012,07,10,13,11,19.30
2012,07,10,13,12,19.20
2012,07,10,13,13,19.20
2012,07,10,13,14,19.20
2012,07,10,13,15,19.30
2012,07,10,13,16,19.40
2012,07,10,13,17,19.40
2012,07,10,13,18,19.40
2012,07,10,13,19,19.50
2012,07,10,13,20,19.60
2012,07,10,13,21,19.60
2012,07,10,13,22,19.50
2012,07,10,13,23,19.40
2012,07,10,13,24,19.40
2012,07,10,13,25,19.40
2012,07,10,13,26,19.40
2012,07,10,13,27,19.40
2012,07,10,13,28,19.50
2012,07,10,13,29,19.60
2012,07,10,13,30,19.60
2012,07,10,13,31,19.60
2012,07,10,13,32,19.50
2012,07,10,13,33,19.50
2012,07,10,13,34,19.40
2012,07,10,13,35,19.40
2012,07,10,13,36,19.20
2012,07,10,13,37,19.00
2012,07,10,13,38,19.00
2012,07,10,13,39,19.00
2012,07,10,13,40,19.00
2012,07,10,13,41,19.00
2012,07,10,13,42,19.00
2012,07,10,13,43,18.90
2012,07,10,13,44,19.00
2012,07,10,13,45,19.10
2012,07,10,13,46,19.10
2012,07,10,13,47,19.30
2012,07,10,13,48,19.40
2012,07,10,13,49,19.50
2012,07,10,13,50,19.70
2012,07,10,13,51,19.80
2012,07,10,13,52,20.00
2012,07,10,13,53,20.10
2012,07,10,13,54,20.10
2012,07,10,13,55,20.20
2012,07,10,13,56,20.30
2012,07,10,13,57,20.30
2012,07,10,13,58,20.30
2012,07,10,13,59,20.20
2012,07,10,14,00,20.20
2012,07,10,14,01,20.20
2012,07,10,14,02,20.30
2012,07,10,14,03,20.30
2012,07,10,14,04,20.30
2012,07,10,14,05,20.40
2012,07,10,14,06,20.50
2012,07,10,14,07,20.50
2012,07,10,14,08,20.50
2012,07,10,14,09,20.60
2012,07,10,14,10,20.60
2012,07,10,14,11,20.60
2012,07,10,14,12,20.50
2012,07,10,14,13,20.40
2012,07,10,14,14,20.30
2012,07,10,14,15,20.30
2012,07,10,14,16,20.20
2012,07,10,14,17,20.20
2012,07,10,14,18,20.30
2012,07,10,14,19,20.30
2012,07,10,14,20,20.30
2012,07,10,14,21,20.40
2012,07,10,14,22,20.40
2012,07,10,14,23,20.30
2012,07,10,14,24,20.30
2012,07,10,14,25,20.30
2012,07,10,14,26,20.30
2012,07,10,14,27,20.30
2012,07,10,14,28,20.30
2012,07,10,14,29,20.30
2012,07,10,14,30,20.30
2012,07,10,14,31,20.40
2012,07,10,14,32,20.60
2012,07,10,14,33,20.70
2012,07,10,14,34,20.70
2012,07,10,14,35,20.70
2012,07,10,14,36,20.70
2012,07,10,14,37,20.50
2012,07,10,14,38,20.40
2012,07,10,14,39,20.40
2012,07,10,14,40,20.40
2012,07,10,14,41,20.40
2012,07,10,14,42,20.40
2012,07,10,14,43,20.40
2012,07,10,14,44,20.40
2012,07,10,14,45,20.40
2012,07,10,14,46,20.50
2012,07,10,14,47,20.40
2012,07,10,14,48,20.50
2012,07,10,14,49,20.50
2012,07,10,14,50,20.50
2012,07,10,14,51,20.60
2012,07,10,14,52,20.70
2012,07,10,14,53,20.80
2012,07,10,14,54,20.80
2012,07,10,14,55,20.80
2012,07,10,14,56,20.70
2012,07,10,14,57,20.70
2012,07,10,14,58,20.50
2012,07,10,14,59,20.50
2012,07,10,15,00,20.50
2012,07,10,15,01,20.50
2012,07,10,15,02,20.50
2012,07,10,15,03,20.40
2012,07,10,15,04,20.40
2012,07,10,15,05,20.40
2012,07,10,15,06,20.30
2012,07,10,15,07,20.30
2012,07,10,15,08,20.40
2012,07,10,15,09,20.40
2012,07,10,15,10,20.50
2012,07,10,15,11,20.60
2012,07,10,15,12,20.60
2012,07,10,15,13,20.60
2012,07,10,15,14,20.60
2012,07,10,15,15,20.50
2012,07,10,15,16,20.40
2012,07,10,15,17,20.40
2012,07,10,15,18,20.40
2012,07,10,15,19,20.50
2012,07,10,15,20,20.50
2012,07,10,15,21,20.50
2012,07,10,15,22,20.50
2012,07,10,15,23,20.40
2012,07,10,15,24,20.30
2012,07,10,15,25,20.10
2012,07,10,15,26,20.10
2012,07,10,15,27,20.10
2012,07,10,15,28,20.10
2012,07,10,15,29,20.10
2012,07,10,15,30,20.10
2012,07,10,15,31,20.10
2012,07,10,15,32,20.20
2012,07,10,15,33,20.20
2012,07,10,15,34,20.30
2012,07,10,15,35,20.40
2012,07,10,15,36,20.40
2012,07,10,15,37,20.50
2012,07,10,15,38,20.60
2012,07,10,15,39,20.70
2012,07,10,15,40,20.80
2012,07,10,15,41,20.80
2012,07,10,15,42,20.90
2012,07,10,15,43,20.90
2012,07,10,15,44,20.80
2012,07,10,15,45,20.80
2012,07,10,15,46,20.70
2012,07,10,15,47,20.70
2012,07,10,15,48,20.70
2012,07,10,15,49,20.70
2012,07,10,15,50,20.90
2012,07,10,15,51,21.10
2012,07,10,15,52,21.30
2012,07,10,15,53,21.40
2012,07,10,15,54,21.60
2012,07,10,15,55,21.80
2012,07,10,15,56,21.90
2012,07,10,15,57,22.00
2012,07,10,15,58,22.20
2012,07,10,15,59,22.30
2012,07,10,16,00,22.40
2012,07,10,16,01,22.50
2012,07,10,16,02,22.50
2012,07,10,16,03,22.60
2012,07,10,16,04,22.70
2012,07,10,16,05,22.80
2012,07,10,16,06,22.80
2012,07,10,16,07,22.90
2012,07,10,16,08,22.90
2012,07,10,16,09,22.90
2012,07,10,16,10,22.90
2012,07,10,16,11,22.90
2012,07,10,16,12,22.90
2012,07,10,16,13,22.90
2012,07,10,16,14,23.00
2012,07,10,16,15,23.00
2012,07,10,16,16,23.20
2012,07,10,16,17,23.30
2012,07,10,16,18,23.40
2012,07,10,16,19,23.50
2012,07,10,16,20,23.50
2012,07,10,16,21,23.60
2012,07,10,16,22,23.60
2012,07,10,16,23,23.60
2012,07,10,16,24,23.70
2012,07,10,16,25,23.70
2012,07,10,16,26,23.70
2012,07,10,16,27,23.70
2012,07,10,16,28,23.50
2012,07,10,16,29,23.40
2012,07,10,16,30,23.30
2012,07,10,16,31,23.30
2012,07,10,16,32,23.30
2012,07,10,16,33,23.20
2012,07,10,16,34,23.30
2012,07,10,16,35,23.30
2012,07,10,16,36,23.30
2012,07,10,16,37,23.40
2012,07,10,16,38,23.50
2012,07,10,16,39,23.60
2012,07,10,16,40,23.70
2012,07,10,16,41,23.80
2012,07,10,16,42,23.90
2012,07,10,16,43,24.00
2012,07,10,16,44,24.10
2012,07,10,16,45,24.20
2012,07,10,16,46,24.30
2012,07,10,16,47,24.30
2012,07,10,16,48,24.30
2012,07,10,16,49,24.30
2012,07,10,16,50,24.30
2012,07,10,16,51,24.40
2012,07,10,16,52,24.40
2012,07,10,16,53,24.40
2012,07,10,16,54,24.30
2012,07,10,16,55,24.30
2012,07,10,16,56,24.30
2012,07,10,16,57,24.20
2012,07,10,16,58,24.10
2012,07,10,16,59,24.00
2012,07,10,17,00,23.90
2012,07,10,17,01,23.90
2012,07,10,17,02,23.90
2012,07,10,17,03,24.00
2012,07,10,17,04,24.10
2012,07,10,17,05,24.10
2012,07,10,17,06,24.20
2012,07,10,17,07,24.30
2012,07,10,17,08,24.30
2012,07,10,17,09,24.30
2012,07,10,17,10,24.30
2012,07,10,17,11,24.10
2012,07,10,17,12,24.00
2012,07,10,17,13,23.90
2012,07,10,17,14,23.80
2012,07,10,17,15,23.80
2012,07,10,17,16,23.80
2012,07,10,17,17,23.70
2012,07,10,17,18,23.60
2012,07,10,17,19,23.60